Ручьи

Россия / Архангельская область     65°59′19″N   41°05′19″E
темп.,
°C
ветер,
м/с
пор.,
м/с
влажн.,
%
обл.,
%
осадки,
мм/ч
давл.,
гПа
погр.,
м
17 октября, вс
вс1700:00+4ю9138165 0.1 990885
03:00+2ю10159699 0.1 990758
06:00+4ю11158297 0.0 989856
09:00+4ю101488100 0.0 988937
12:00+4ю91394100 0.3 988854
15:00+3ююв81297100 1.3 987804
18:00+3ю71097100 1.6 987632
21:00+3ю5698100 2.4 987336
18 октября, пн
пн1800:00+3юз5697100 0.6 988447
03:00+3ююв3398100 1.2 989281
06:00+2в1196100 0.8 990309
09:00+3ссз2382100 0.9 991470
12:00+4с4688100 0.5 993716
15:00+5ссв91074100 1.3 9951128
18:00+5ссз11118185 0.7 997749
21:00+4с12127599 1.2 10001040
19 октября, вт
вт1900:00+2ссз111278100 0.0 1002792
03:00+2сз12137621 0.0 1002748
06:00+1зсз141679100 0.0 1001968
09:00+3сз101087100 0.3 999903
12:00+4ссз121388100 1.0 1000805
15:00+4ссз141497100 1.3 1001751
18:00+3ссз111397100 0.3 1002764
21:00+4ссз121297100 0.6 1003605
20 октября, ср
ср2000:00+4ссз121378100 0.4 1005990
03:00+4ссз11127948 0.4 1007744
06:00+2ссз10107779 0.0 1008615
09:00+2ссз8972100 0.0 1009588
12:00+2сз6666100 0.0 1009715
15:00+2зсз5665100 0.0 1009678
18:00+2юз3462100 0.0 1007782
21:00+1ю6875100 0.0 1005539
21 октября, чт
чт2100:000ююв91474100 0.0 1001688
03:000юв111687100 0.6 9961088
06:00−1ююв131993100 2.0 989988
09:00−1ююв131893100 3.7 983850
12:000ююв121794100 2.1 978695
15:00+2ююв91594100 6.1 973610
18:00+6ююз121994100 4.2 970546
21:00+7ю121894100 5.9 969500